Weather History for Montague, CA

Change the Weather History Date:

Tuesday, March 6, 2012

  Actual Average Record
Temperature  
Mean Temperature 31 °F 43 °F  
Max Temperature 39 °F 56 °F 68 °F (1993)
Min Temperature 23 °F 30 °F 14 °F (1956)
Degree Days  
Heating Degree Days 34 22  
Month to date heating degree days 161 137  
Since 1 July heating degree days 4071 4014  
Cooling Degree Days 0 0  
Month to date cooling degree days 0 0  
Year to date cooling degree days 0 0  
Moisture  
Dew Point 23 °F    
Average Humidity 73    
Maximum Humidity 92    
Minimum Humidity 47    
Precipitation  
Precipitation 0.01 in 0.07 in 0.64 in (2011)
Month to date precipitation 0.02 0.54  
Year to date precipitation 2.89 4.75  
Sea Level Pressure  
Sea Level Pressure 30.09 in    
Wind  
Wind Speed 11 mph (North)    
Max Wind Speed 30 mph    
Max Gust Speed 37 mph    
Visibility 8 miles    
Events Snow    
T = Trace of Precipitation, MM = Missing Value Source: NWS Daily Summary

Daily Weather History Graph

Daily Weather History Graph

Search for Another Location

Airport:

Trip Planner

Search our weather history database for the weather conditions in past years. The results will help you decide how hot, cold, wet, or windy it might be!

Date:

Astronomy

Mar. 06, 2012 Rise Set
Actual Time 6:35 AM PST 6:06 PM PST
Civil Twilight 6:07 AM PST 6:34 PM PST
Nautical Twilight 5:35 AM PST 7:06 PM PST
Astronomical Twilight 5:03 AM PST 7:39 PM PST
Moon 4:39 PM PST (3/6) 5:15 AM PST (3/6)
Length of Visible Light 12h 26m
Length of Day
11h 31m
Waxing Gibbous, 97% of the Moon is Illuminated
Mar 6
Waxing Gibbous
Mar 8
Full
Mar 14
Last Quarter
Mar 22
New
Mar 30
First Quarter

Hourly Weather History & Observations

Time (PST) Temp. Windchill Dew Point Humidity Pressure Visibility Wind Dir Wind Speed Gust Speed Precip Events Conditions
12:09 AM 33.8 °F 22.8 °F 30.2 °F 87% 29.89 in 1.8 mi NNE 18.4 mph 23.0 mph 0.00 in Snow Light Snow
12:30 AM 33.8 °F 24.8 °F 30.2 °F 87% 29.90 in 3.0 mi NNE 12.7 mph - 0.01 in Snow Light Snow
12:53 AM 34.0 °F 24.6 °F 28.0 °F 79% 29.94 in 9.0 mi North 13.8 mph - 0.01 in   Overcast
1:53 AM 33.1 °F 23.9 °F 26.1 °F 75% 29.96 in 10.0 mi North 12.7 mph 19.6 mph N/A   Mostly Cloudy
2:53 AM 33.1 °F 28.7 °F 27.0 °F 78% 29.97 in 10.0 mi NNE 4.6 mph - 0.00 in Snow Light Snow
4:44 AM 30.2 °F 21.9 °F 24.8 °F 80% 29.97 in 5.0 mi NNW 9.2 mph - 0.00 in Snow Light Snow
4:53 AM 28.9 °F 23.9 °F 26.1 °F 89% 30.01 in 8.0 mi NW 4.6 mph - 0.00 in   Overcast
5:02 AM 28.4 °F 20.4 °F 26.6 °F 93% 29.97 in 10.0 mi North 8.1 mph - N/A   Overcast
5:09 AM 30.2 °F 20.8 °F 26.6 °F 86% 29.97 in 2.5 mi NW 11.5 mph - 0.00 in Snow Light Snow
5:15 AM 30.2 °F 20.8 °F 26.6 °F 86% 29.98 in 0.8 mi NW 11.5 mph - 0.00 in Snow Light Snow
5:31 AM 28.4 °F 20.4 °F 28.4 °F 100% 29.98 in 1.0 mi WNW 8.1 mph - 0.00 in Snow Light Snow
5:36 AM 28.4 °F 19.1 °F 26.6 °F 93% 29.98 in 2.0 mi NW 10.4 mph - 0.00 in Snow Light Snow
5:53 AM 28.9 °F 19.2 °F 24.1 °F 82% 30.04 in 10.0 mi NNW 11.5 mph - 0.00 in   Mostly Cloudy
6:53 AM 28.0 °F 15.3 °F 18.0 °F 66% 30.07 in 10.0 mi NNW 18.4 mph - N/A   Clear
7:14 AM 28.4 °F 14.1 °F 19.4 °F 69% 30.04 in 1.8 mi NNW 24.2 mph 36.8 mph 0.00 in Snow Light Snow
7:21 AM 28.4 °F 13.8 °F 17.6 °F 64% 30.04 in 3.0 mi North 25.3 mph 31.1 mph 0.00 in Snow Light Snow
7:53 AM 28.9 °F 16.5 °F 17.1 °F 61% 30.12 in 10.0 mi North 18.4 mph - 0.00 in   Scattered Clouds
8:53 AM 30.9 °F 18.7 °F 18.0 °F 59% 30.15 in 10.0 mi North 19.6 mph - N/A   Scattered Clouds
9:53 AM 34.0 °F 22.7 °F 21.0 °F 59% 30.16 in 10.0 mi North 19.6 mph 25.3 mph N/A   Mostly Cloudy
10:53 AM 36.0 °F 25.6 °F 18.0 °F 48% 30.16 in 10.0 mi North 18.4 mph 25.3 mph N/A   Mostly Cloudy
11:53 AM 34.0 °F 27.2 °F 19.0 °F 54% 30.18 in 10.0 mi WNW 8.1 mph - N/A   Overcast
12:53 PM 35.1 °F 29.3 °F 19.0 °F 52% 30.16 in 10.0 mi WNW 6.9 mph - N/A   Overcast
1:53 PM 36.0 °F 25.3 °F 19.9 °F 52% 30.17 in 10.0 mi North 19.6 mph 25.3 mph 0.00 in   Overcast
2:53 PM 36.0 °F 28.5 °F 21.9 °F 57% 30.18 in 10.0 mi NNE 10.4 mph - 0.00 in   Overcast
3:53 PM 35.1 °F 25.2 °F 23.0 °F 61% 30.19 in 10.0 mi NNE 16.1 mph - N/A   Overcast
4:53 PM 35.1 °F 24.8 °F 21.9 °F 59% 30.20 in 10.0 mi North 17.3 mph - N/A   Overcast
5:53 PM 30.9 °F 22.8 °F 21.9 °F 69% 30.22 in 10.0 mi NNE 9.2 mph - N/A   Partly Cloudy
7:53 PM 32.0 °F - 21.9 °F 66% 30.25 in 10.0 mi Calm Calm - N/A   Scattered Clouds
8:53 PM 28.0 °F 21.7 °F 21.0 °F 75% 30.27 in 10.0 mi NNE 5.8 mph - N/A   Mostly Cloudy
9:53 PM 26.1 °F 16.8 °F 19.9 °F 78% 30.29 in 10.0 mi North 9.2 mph - N/A   Scattered Clouds
10:53 PM 25.0 °F 18.1 °F 19.9 °F 81% 30.28 in 10.0 mi North 5.8 mph - N/A   Clear
11:53 PM 26.1 °F 20.5 °F 19.9 °F 78% 30.29 in 10.0 mi NW 4.6 mph - N/A   Clear